Weather in Vostretsovo

Russia / Khabarovsk Krai     59˚17′25″N   142˚52′49″E
temp.,
°C
wind,
m/s
gust,
m/s
humid.,
%
clouds,
%
prec.,
mm/h
press.,
hPa
HPBL,
m
18 january, mon
mon1801:00−25˚nnw7127299 0.0 1014295
04:00−26˚nnw8127092 0.0 1013224
07:00−28˚nnw7107055 0.0 1013194
10:00−27˚nnw796877 0.0 1012263
13:00−26˚nnw6106898 0.0 1010269
16:00−26˚nnw597084 0.0 1009173
19:00−24˚nnw61367100 0.0 1009371
22:00−24˚nnw71396100 0.3 1008431
19 january, tue
tue1901:00−24˚nnw71298100 0.7 1007379
04:00−23˚nnw61097100 1.4 1006325
07:00−22˚nnw5998100 0.5 1006284
10:00−21˚nnw5998100 1.1 1006280
13:00−19˚n6896100 0.6 1006295
16:00−18˚n4792100 0.9 1006229
19:00−18˚nnw2383100 0.0 100766
22:00−18˚nnw3477100 0.0 100898
20 january, wed
wed2001:00−19˚n5773100 0.0 1009121
04:00−20˚n4571100 0.0 101082
07:00−20˚n4568100 0.0 101267
10:00−21˚n4467100 0.0 101451
13:00−21˚nne3470100 0.0 101468
16:00−22˚n2369100 0.0 101524
19:00−23˚n2265100 0.0 101620
22:00−24˚nne236597 0.0 101620
21 january, thu
thu2101:00−25˚n336499 0.0 101627
04:00−26˚n346395 0.0 101628
07:00−26˚n336290 0.0 101525
10:00−26˚n336083 0.0 101626
13:00−25˚n226492 0.0 101545
16:00−25˚nw126196 0.0 101420
19:00−25˚nw1161100 0.0 101420
22:00−26˚n235893 0.0 101420
22 january, fri
fri2201:00−26˚n235765 0.0 101320
04:00−27˚n235870 0.0 101422
07:00−26˚n236193 0.0 101330
10:00−26˚n236594 0.0 101335
13:00−25˚nnw227296 0.0 101353
16:00−25˚wnw127297 0.0 101221
19:00−26˚n237399 0.0 101223
22:00−26˚n337399 0.0 101353